| time (UTC) | temp C | wind direction | speed KPH | gust KPH | rain 1hr cm | rain 24hr cm | rain mn cm | humidity % | barometer mb |
| 20260506105925 | 11 | 139 | 0.0 | 0.0 | 0.00 | 0.00 | 0.00 | 95 | 1018.4 |
| 20260506105427 | 11 | 360 | 0.0 | 0.0 | 0.00 | 0.00 | 0.00 | 95 | 1018.2 |
| 20260506104426 | 11 | 360 | 0.0 | 0.0 | 0.00 | 0.00 | 0.00 | 95 | 1018.2 |
| 20260506103926 | 11 | 360 | 0.0 | 0.0 | 0.00 | 0.00 | 0.00 | 95 | 1018.0 |
| 20260506102925 | 10 | 138 | 0.0 | 0.0 | 0.00 | 0.00 | 0.00 | 95 | 1018.0 |
| 20260506101925 | 10 | 360 | 0.0 | 0.0 | 0.00 | 0.00 | 0.00 | 95 | 1017.8 |
| 20260506101425 | 10 | 136 | 0.0 | 0.0 | 0.00 | 0.00 | 0.00 | 95 | 1017.8 |
| 20260506100925 | 10 | 360 | 0.0 | 0.0 | 0.00 | 0.00 | 0.00 | 94 | 1017.7 |
| 20260506100425 | 10 | 360 | 0.0 | 0.0 | 0.00 | 0.00 | 0.00 | 94 | 1017.7 |
| 20260506095925 | 10 | 360 | 0.0 | 0.0 | 0.00 | 0.00 | 0.00 | 94 | 1017.7 |
| 20260506095425 | 10 | 360 | 0.0 | 0.0 | 0.00 | 0.00 | 0.00 | 94 | 1017.6 |
| 20260506094925 | 10 | 360 | 0.0 | 0.0 | 0.00 | 0.00 | 0.00 | 94 | 1017.6 |
| 20260506094425 | 10 | 134 | 0.0 | 0.0 | 0.00 | 0.00 | 0.00 | 94 | 1017.6 |
| 20260506093925 | 11 | 135 | 0.0 | 0.0 | 0.00 | 0.00 | 0.00 | 94 | 1017.4 |
| 20260506093425 | 11 | 360 | 0.0 | 0.0 | 0.00 | 0.00 | 0.00 | 94 | 1017.4 |
| 20260506092925 | 10 | 360 | 0.0 | 0.0 | 0.00 | 0.00 | 0.00 | 93 | 1017.4 |
| 20260506091925 | 10 | 360 | 0.0 | 0.0 | 0.00 | 0.00 | 0.00 | 93 | 1017.3 |
| 20260506091425 | 10 | 360 | 0.0 | 0.0 | 0.00 | 0.00 | 0.00 | 93 | 1017.3 |
| 20260506090925 | 11 | 360 | 0.0 | 0.0 | 0.00 | 0.00 | 0.00 | 92 | 1017.3 |
| 20260506090425 | 11 | 360 | 0.0 | 0.0 | 0.00 | 0.00 | 0.00 | 92 | 1017.3 |
| 20260506085925 | 11 | 360 | 0.0 | 0.0 | 0.00 | 0.00 | 0.00 | 92 | 1017.3 |
| 20260506084425 | 11 | 360 | 0.0 | 0.0 | 0.00 | 0.00 | 0.00 | 91 | 1017.2 |
| 20260506083925 | 11 | 360 | 0.0 | 0.0 | 0.00 | 0.00 | 0.00 | 91 | 1017.2 |
| 20260506083424 | 11 | 360 | 0.0 | 0.0 | 0.00 | 0.00 | 0.00 | 90 | 1017.2 |
| 20260506081925 | 11 | 360 | 0.0 | 0.0 | 0.00 | 0.00 | 0.00 | 89 | 1017.1 |
| 20260506081425 | 11 | 360 | 0.0 | 0.0 | 0.00 | 0.00 | 0.00 | 89 | 1017.1 |
| 20260506080924 | 11 | 360 | 0.0 | 0.0 | 0.00 | 0.00 | 0.00 | 89 | 1017.1 |
| 20260506080425 | 11 | 360 | 0.0 | 0.0 | 0.00 | 0.00 | 0.00 | 88 | 1017.1 |
| 20260506072924 | 12 | 360 | 0.0 | 0.0 | 0.00 | 0.00 | 0.00 | 88 | 1017.1 |
| 20260506072424 | 12 | 360 | 0.0 | 0.0 | 0.00 | 0.00 | 0.00 | 87 | 1017.0 |
| 20260506071924 | 12 | 360 | 0.0 | 0.0 | 0.00 | 0.00 | 0.00 | 87 | 1017.0 |
| 20260506071424 | 12 | 360 | 0.0 | 0.0 | 0.00 | 0.00 | 0.00 | 87 | 1017.0 |
| 20260506070924 | 12 | 360 | 0.0 | 0.0 | 0.00 | 0.00 | 0.00 | 86 | 1016.8 |
| 20260506070424 | 12 | 360 | 0.0 | 0.0 | 0.00 | 0.00 | 0.00 | 86 | 1016.8 |
| 20260506062425 | 13 | 178 | 0.0 | 1.6 | 0.00 | 0.00 | 0.00 | 85 | 1016.6 |
| 20260506061924 | 13 | 178 | 0.0 | 1.6 | 0.00 | 0.00 | 0.00 | 84 | 1016.6 |
| 20260506061424 | 13 | 178 | 0.0 | 1.6 | 0.00 | 0.00 | 0.00 | 84 | 1016.6 |
| 20260506060924 | 13 | 178 | 0.0 | 0.0 | 0.00 | 0.00 | 0.00 | 84 | 1016.5 |
| 20260506060424 | 13 | 178 | 0.0 | 1.6 | 0.00 | 0.00 | 0.00 | 84 | 1016.5 |
| 20260506050923 | 15 | 31 | 0.0 | 1.6 | 0.00 | 0.00 | 0.00 | 79 | 1016.2 |
| 20260506050423 | 15 | 31 | 0.0 | 1.6 | 0.00 | 0.00 | 0.00 | 79 | 1016.2 |
| 20260506044923 | 15 | 31 | 0.0 | 0.0 | 0.00 | 0.00 | 0.00 | 78 | 1016.0 |
| 20260506044423 | 15 | 31 | 0.0 | 0.0 | 0.00 | 0.00 | 0.00 | 78 | 1016.0 |
| 20260506043923 | 15 | 31 | 0.0 | 0.0 | 0.00 | 0.00 | 0.00 | 78 | 1015.8 |
| 20260506042923 | 15 | 31 | 0.0 | 0.0 | 0.00 | 0.00 | 0.00 | 77 | 1015.9 |
| 20260506042423 | 15 | 31 | 0.0 | 0.0 | 0.00 | 0.00 | 0.00 | 77 | 1015.6 |
| 20260506041923 | 15 | 31 | 0.0 | 1.6 | 0.00 | 0.00 | 0.00 | 76 | 1015.6 |
| 20260506041423 | 15 | 31 | 0.0 | 1.6 | 0.00 | 0.00 | 0.00 | 76 | 1015.6 |
| 20260506040423 | 16 | 30 | 0.0 | 0.0 | 0.00 | 0.00 | 0.00 | 75 | 1015.4 |
| 20260506035923 | 16 | 30 | 0.0 | 0.0 | 0.00 | 0.00 | 0.00 | 75 | 1015.4 |
| 20260506034923 | 16 | 30 | 0.0 | 0.0 | 0.00 | 0.00 | 0.00 | 75 | 1015.1 |
| 20260506034423 | 16 | 30 | 0.0 | 0.0 | 0.00 | 0.00 | 0.00 | 75 | 1015.1 |
| 20260506033923 | 16 | 30 | 0.0 | 3.2 | 0.00 | 0.00 | 0.00 | 75 | 1014.9 |
| 20260506033423 | 16 | 31 | 0.0 | 3.2 | 0.00 | 0.00 | 0.00 | 75 | 1014.9 |
| 20260506032923 | 17 | 80 | 0.0 | 3.2 | 0.00 | 0.00 | 0.00 | 74 | 1014.9 |
| 20260506032422 | 17 | 125 | 0.0 | 0.0 | 0.00 | 0.00 | 0.00 | 73 | 1014.8 |
| 20260506031923 | 17 | 125 | 0.0 | 0.0 | 0.00 | 0.00 | 0.00 | 73 | 1014.8 |
| 20260506031423 | 17 | 125 | 0.0 | 0.0 | 0.00 | 0.00 | 0.00 | 73 | 1014.8 |
| 20260506030923 | 17 | 125 | 0.0 | 3.2 | 0.00 | 0.00 | 0.00 | 72 | 1014.7 |
| 20260506030423 | 17 | 125 | 0.0 | 3.2 | 0.00 | 0.00 | 0.00 | 71 | 1014.7 |
| 20260506025922 | 17 | 114 | 0.0 | 1.6 | 0.00 | 0.00 | 0.00 | 71 | 1014.7 |
| 20260506025423 | 17 | 114 | 0.0 | 4.8 | 0.00 | 0.00 | 0.00 | 71 | 1014.6 |
| 20260506024422 | 17 | 132 | 3.2 | 3.2 | 0.00 | 0.00 | 0.00 | 71 | 1014.6 |
| 20260506023924 | 17 | 127 | 0.0 | 4.8 | 0.00 | 0.00 | 0.00 | 71 | 1014.5 |
| 20260506022923 | 18 | 123 | 1.6 | 4.8 | 0.00 | 0.00 | 0.00 | 70 | 1014.5 |
| 20260506022423 | 18 | 123 | 0.0 | 4.8 | 0.00 | 0.00 | 0.00 | 70 | 1014.5 |
| 20260506021423 | 18 | 120 | 1.6 | 6.4 | 0.00 | 0.00 | 0.00 | 69 | 1014.5 |
| 20260506020922 | 18 | 115 | 3.2 | 4.8 | 0.00 | 0.00 | 0.00 | 70 | 1014.5 |
| 20260506020422 | 18 | 146 | 1.6 | 8.0 | 0.00 | 0.00 | 0.00 | 70 | 1014.5 |
| 20260506015922 | 18 | 71 | 0.0 | 8.0 | 0.00 | 0.00 | 0.00 | 68 | 1014.5 |
| 20260506015422 | 18 | 166 | 1.6 | 8.0 | 0.00 | 0.00 | 0.00 | 68 | 1014.4 |
| 20260506014922 | 18 | 107 | 3.2 | 8.0 | 0.00 | 0.00 | 0.00 | 68 | 1014.4 |
| 20260506014422 | 18 | 140 | 3.2 | 8.0 | 0.00 | 0.00 | 0.00 | 68 | 1014.5 |
| 20260506013922 | 18 | 142 | 3.2 | 9.7 | 0.00 | 0.00 | 0.00 | 68 | 1014.5 |
| 20260506013422 | 18 | 92 | 3.2 | 9.7 | 0.00 | 0.00 | 0.00 | 68 | 1014.5 |
| 20260506012922 | 18 | 140 | 0.0 | 8.0 | 0.00 | 0.00 | 0.00 | 67 | 1014.5 |
| 20260506012422 | 18 | 130 | 4.8 | 8.0 | 0.00 | 0.00 | 0.00 | 67 | 1014.5 |
| 20260506011422 | 18 | 144 | 0.0 | 6.4 | 0.00 | 0.00 | 0.00 | 68 | 1014.5 |
| 20260506010922 | 18 | 140 | 3.2 | 6.4 | 0.00 | 0.00 | 0.00 | 68 | 1014.5 |
| 20260506010422 | 18 | 150 | 0.0 | 3.2 | 0.00 | 0.00 | 0.00 | 67 | 1014.5 |
| 20260506004922 | 18 | 157 | 3.2 | 8.0 | 0.00 | 0.00 | 0.00 | 68 | 1014.4 |
| 20260506004422 | 18 | 113 | 1.6 | 8.0 | 0.00 | 0.00 | 0.00 | 67 | 1014.4 |
| 20260506003922 | 18 | 59 | 1.6 | 8.0 | 0.00 | 0.00 | 0.00 | 66 | 1014.4 |
| 20260506003421 | 18 | 104 | 0.0 | 3.2 | 0.00 | 0.00 | 0.00 | 66 | 1014.4 |
| 20260506002421 | 18 | 102 | 0.0 | 9.7 | 0.00 | 0.00 | 0.00 | 65 | 1014.4 |
| 20260506001922 | 18 | 180 | 3.2 | 9.7 | 0.00 | 0.00 | 0.00 | 65 | 1014.4 |
| 20260506001422 | 18 | 195 | 4.8 | 8.0 | 0.00 | 0.00 | 0.00 | 66 | 1014.4 |
| 20260506000922 | 18 | 126 | 3.2 | 6.4 | 0.00 | 0.00 | 0.00 | 66 | 1014.5 |
| 20260505235922 | 18 | 157 | 0.0 | 11.3 | 0.00 | 0.00 | 0.00 | 66 | 1014.5 |
| 20260505235421 | 18 | 130 | 3.2 | 11.3 | 0.00 | 0.00 | 0.00 | 68 | 1014.6 |
| 20260505234921 | 18 | 81 | 4.8 | 8.0 | 0.00 | 0.00 | 0.00 | 67 | 1014.6 |
| 20260505234421 | 18 | 16 | 1.6 | 8.0 | 0.00 | 0.00 | 0.00 | 66 | 1014.6 |
| 20260505233921 | 18 | 130 | 1.6 | 8.0 | 0.00 | 0.00 | 0.00 | 67 | 1014.9 |
| 20260505233421 | 18 | 23 | 8.0 | 11.3 | 0.00 | 0.00 | 0.00 | 65 | 1014.9 |
| 20260505232922 | 18 | 36 | 6.4 | 11.3 | 0.00 | 0.00 | 0.00 | 66 | 1014.9 |
| 20260505231921 | 18 | 34 | 6.4 | 11.3 | 0.00 | 0.00 | 0.00 | 67 | 1015.0 |
| 20260505231421 | 18 | 138 | 6.4 | 6.4 | 0.00 | 0.00 | 0.00 | 67 | 1015.0 |
| 20260505230922 | 18 | 63 | 4.8 | 4.8 | 0.00 | 0.00 | 0.00 | 66 | 1015.0 |
| 20260505230421 | 18 | 117 | 0.0 | 1.6 | 0.00 | 0.00 | 0.00 | 67 | 1015.0 |
| 20260505225921 | 18 | 118 | 0.0 | 6.4 | 0.00 | 0.00 | 0.00 | 68 | 1015.0 |
| 20260505225421 | 17 | 117 | 0.0 | 6.4 | 0.00 | 0.00 | 0.00 | 69 | 1015.1 |
| 20260505224921 | 17 | 221 | 4.8 | 6.4 | 0.00 | 0.00 | 0.00 | 68 | 1015.1 |
| 20260505224421 | 17 | 126 | 3.2 | 6.4 | 0.00 | 0.00 | 0.00 | 68 | 1015.1 |
| 20260505223921 | 17 | 130 | 3.2 | 6.4 | 0.00 | 0.00 | 0.00 | 68 | 1015.3 |
| 20260505223421 | 17 | 116 | 4.8 | 6.4 | 0.00 | 0.00 | 0.00 | 68 | 1015.3 |
| 20260505222921 | 18 | 163 | 3.2 | 6.4 | 0.00 | 0.00 | 0.00 | 68 | 1015.3 |
| 20260505222421 | 17 | 62 | 0.0 | 4.8 | 0.00 | 0.00 | 0.00 | 67 | 1015.4 |
| 20260505221921 | 17 | 59 | 0.0 | 8.0 | 0.00 | 0.00 | 0.00 | 68 | 1015.4 |
| 20260505220921 | 17 | 152 | 0.0 | 4.8 | 0.00 | 0.00 | 0.00 | 70 | 1015.5 |
| 20260505220420 | 17 | 116 | 1.6 | 4.8 | 0.00 | 0.00 | 0.00 | 69 | 1015.5 |
| 20260505215921 | 17 | 74 | 1.6 | 4.8 | 0.00 | 0.00 | 0.00 | 70 | 1015.5 |
| 20260505215420 | 17 | 44 | 3.2 | 4.8 | 0.00 | 0.00 | 0.00 | 69 | 1015.7 |
| 20260505214921 | 17 | 36 | 0.0 | 3.2 | 0.00 | 0.00 | 0.00 | 73 | 1015.7 |
| 20260505214421 | 17 | 143 | 1.6 | 6.4 | 0.00 | 0.00 | 0.00 | 72 | 1015.7 |
| 20260505213920 | 17 | 85 | 3.2 | 8.0 | 0.00 | 0.00 | 0.00 | 72 | 1015.7 |
| 20260505213421 | 17 | 135 | 4.8 | 8.0 | 0.00 | 0.00 | 0.00 | 71 | 1015.7 |
| 20260505212921 | 17 | 175 | 6.4 | 8.0 | 0.00 | 0.00 | 0.00 | 72 | 1015.7 |
| 20260505212421 | 16 | 21 | 0.0 | 6.4 | 0.00 | 0.00 | 0.00 | 74 | 1015.8 |
| 20260505211921 | 16 | 18 | 4.8 | 6.4 | 0.00 | 0.00 | 0.00 | 72 | 1015.8 |
| 20260505211420 | 16 | 95 | 0.0 | 8.0 | 0.00 | 0.00 | 0.00 | 72 | 1015.8 |
| 20260505210421 | 16 | 191 | 3.2 | 8.0 | 0.00 | 0.00 | 0.00 | 74 | 1015.9 |
| 20260505205921 | 16 | 113 | 1.6 | 8.0 | 0.00 | 0.00 | 0.00 | 73 | 1015.9 |
| 20260505205420 | 16 | 101 | 1.6 | 8.0 | 0.00 | 0.00 | 0.00 | 74 | 1016.0 |
| 20260505204920 | 16 | 98 | 1.6 | 4.8 | 0.00 | 0.00 | 0.00 | 75 | 1016.0 |
| 20260505204420 | 16 | 111 | 1.6 | 4.8 | 0.00 | 0.00 | 0.00 | 75 | 1016.0 |
| 20260505203921 | 16 | 55 | 3.2 | 6.4 | 0.00 | 0.00 | 0.00 | 75 | 1016.1 |
| 20260505203420 | 16 | 45 | 4.8 | 6.4 | 0.00 | 0.00 | 0.00 | 75 | 1016.1 |
| 20260505202420 | 16 | 147 | 4.8 | 8.0 | 0.00 | 0.00 | 0.00 | 75 | 1016.2 |
| 20260505201420 | 15 | 60 | 0.0 | 8.0 | 0.00 | 0.00 | 0.00 | 76 | 1016.2 |
| 20260505200920 | 15 | 45 | 1.6 | 6.4 | 0.00 | 0.00 | 0.00 | 76 | 1016.2 |
| 20260505200420 | 15 | 51 | 0.0 | 6.4 | 0.00 | 0.00 | 0.00 | 77 | 1016.2 |
| 20260505195920 | 15 | 136 | 1.6 | 4.8 | 0.00 | 0.00 | 0.00 | 78 | 1016.2 |
| 20260505195420 | 15 | 124 | 0.0 | 4.8 | 0.00 | 0.00 | 0.00 | 78 | 1016.3 |
| 20260505194920 | 15 | 46 | 0.0 | 8.0 | 0.00 | 0.00 | 0.00 | 77 | 1016.3 |
| 20260505194420 | 15 | 35 | 0.0 | 8.0 | 0.00 | 0.00 | 0.00 | 76 | 1016.3 |
| 20260505193920 | 15 | 113 | 3.2 | 4.8 | 0.00 | 0.00 | 0.00 | 77 | 1016.3 |
| 20260505193419 | 15 | 113 | 1.6 | 4.8 | 0.00 | 0.00 | 0.00 | 76 | 1016.3 |
| 20260505192920 | 15 | 50 | 0.0 | 4.8 | 0.00 | 0.00 | 0.00 | 79 | 1016.3 |
| 20260505192420 | 15 | 49 | 0.0 | 6.4 | 0.00 | 0.00 | 0.00 | 79 | 1016.3 |
| 20260505191919 | 15 | 44 | 3.2 | 6.4 | 0.00 | 0.00 | 0.00 | 77 | 1016.3 |
| 20260505191420 | 15 | 121 | 1.6 | 4.8 | 0.00 | 0.00 | 0.00 | 77 | 1016.3 |
| 20260505190919 | 15 | 92 | 0.0 | 3.2 | 0.00 | 0.00 | 0.00 | 76 | 1016.2 |
| 20260505190420 | 15 | 68 | 0.0 | 3.2 | 0.00 | 0.00 | 0.00 | 77 | 1016.2 |
| 20260505185920 | 15 | 85 | 3.2 | 3.2 | 0.00 | 0.00 | 0.00 | 78 | 1016.2 |
| 20260505184920 | 14 | 127 | 1.6 | 4.8 | 0.00 | 0.00 | 0.00 | 78 | 1016.3 |
| 20260505184419 | 14 | 148 | 1.6 | 4.8 | 0.00 | 0.00 | 0.00 | 79 | 1016.3 |
| 20260505183919 | 14 | 360 | 0.0 | 4.8 | 0.00 | 0.00 | 0.00 | 79 | 1016.2 |
| 20260505183419 | 14 | 126 | 1.6 | 4.8 | 0.00 | 0.00 | 0.00 | 79 | 1016.2 |
| 20260505182920 | 14 | 360 | 3.2 | 4.8 | 0.00 | 0.00 | 0.00 | 79 | 1016.2 |
| 20260505182419 | 14 | 360 | 0.0 | 6.4 | 0.00 | 0.00 | 0.00 | 79 | 1016.1 |
| 20260505181419 | 14 | 166 | 3.2 | 4.8 | 0.00 | 0.00 | 0.00 | 79 | 1016.1 |
| 20260505180419 | 13 | 121 | 1.6 | 4.8 | 0.00 | 0.00 | 0.00 | 80 | 1016.1 |
| 20260505175919 | 13 | 81 | 0.0 | 4.8 | 0.00 | 0.00 | 0.00 | 81 | 1016.1 |
| 20260505174919 | 13 | 78 | 3.2 | 6.4 | 0.00 | 0.00 | 0.00 | 81 | 1016.1 |
| 20260505174419 | 13 | 167 | 0.0 | 6.4 | 0.00 | 0.00 | 0.00 | 81 | 1016.1 |
| 20260505173920 | 13 | 155 | 4.8 | 4.8 | 0.00 | 0.00 | 0.00 | 81 | 1016.0 |
| 20260505173419 | 13 | 110 | 0.0 | 4.8 | 0.00 | 0.00 | 0.00 | 82 | 1016.0 |
| 20260505172419 | 13 | 141 | 3.2 | 4.8 | 0.00 | 0.00 | 0.00 | 82 | 1016.0 |
| 20260505171919 | 13 | 360 | 3.2 | 4.8 | 0.00 | 0.00 | 0.00 | 82 | 1016.0 |
| 20260505171419 | 13 | 360 | 0.0 | 4.8 | 0.00 | 0.00 | 0.00 | 82 | 1016.0 |
| 20260505170419 | 13 | 360 | 0.0 | 6.4 | 0.00 | 0.00 | 0.00 | 83 | 1015.9 |
| 20260505165919 | 13 | 360 | 1.6 | 6.4 | 0.00 | 0.00 | 0.00 | 83 | 1015.9 |
| 20260505165419 | 13 | 360 | 1.6 | 6.4 | 0.00 | 0.00 | 0.00 | 85 | 1015.9 |
| 20260505163919 | 13 | 360 | 3.2 | 4.8 | 0.00 | 0.00 | 0.00 | 85 | 1015.7 |
| 20260505163419 | 13 | 360 | 0.0 | 4.8 | 0.00 | 0.00 | 0.00 | 85 | 1015.7 |
| 20260505162919 | 13 | 360 | 3.2 | 4.8 | 0.00 | 0.00 | 0.00 | 86 | 1015.7 |
| 20260505162419 | 13 | 360 | 0.0 | 4.8 | 0.00 | 0.00 | 0.00 | 86 | 1015.7 |
| 20260505161419 | 12 | 360 | 0.0 | 3.2 | 0.00 | 0.00 | 0.00 | 87 | 1015.7 |
| 20260505160919 | 12 | 360 | 0.0 | 4.8 | 0.00 | 0.00 | 0.00 | 87 | 1015.7 |
| 20260505160449 | 12 | 360 | 1.6 | 4.8 | 0.00 | 0.00 | 0.00 | 87 | 1015.7 |
| 20260505152918 | 12 | 360 | 0.0 | 0.0 | 0.00 | 0.00 | 0.00 | 90 | 1015.6 |
| 20260505152419 | 11 | 360 | 0.0 | 0.0 | 0.00 | 0.00 | 0.00 | 91 | 1015.6 |
| 20260505151919 | 11 | 360 | 0.0 | 0.0 | 0.00 | 0.00 | 0.00 | 92 | 1015.6 |
| 20260505151418 | 11 | 360 | 0.0 | 0.0 | 0.00 | 0.00 | 0.00 | 92 | 1015.6 |
| 20260505150919 | 11 | 360 | 0.0 | 0.0 | 0.00 | 0.00 | 0.00 | 93 | 1015.5 |
| 20260505140418 | 10 | 360 | 0.0 | 0.0 | 0.00 | 0.00 | 0.00 | 99 | 1015.1 |
| 20260505124917 | 9 | 142 | 0.0 | 0.0 | 0.00 | 0.00 | 0.00 | 99 | 1014.7 |
| 20260505124416 | 9 | 143 | 0.0 | 0.0 | 0.00 | 0.00 | 0.00 | 99 | 1014.7 |
| 20260505123916 | 9 | 360 | 0.0 | 0.0 | 0.00 | 0.00 | 0.00 | 99 | 1014.6 |
| 20260505123417 | 9 | 360 | 0.0 | 0.0 | 0.00 | 0.00 | 0.00 | 99 | 1014.6 |
| 20260505122917 | 9 | 360 | 0.0 | 0.0 | 0.00 | 0.00 | 0.00 | 99 | 1014.6 |
| 20260505122417 | 8 | 360 | 0.0 | 0.0 | 0.00 | 0.00 | 0.00 | 99 | 1014.6 |
| 20260505121916 | 8 | 360 | 0.0 | 0.0 | 0.00 | 0.00 | 0.00 | 99 | 1014.6 |
| 20260505121417 | 8 | 360 | 0.0 | 0.0 | 0.00 | 0.00 | 0.00 | 99 | 1014.6 |
| 20260505120917 | 8 | 360 | 0.0 | 0.0 | 0.00 | 0.00 | 0.00 | 99 | 1014.6 |
| 20260505120416 | 8 | 360 | 0.0 | 0.0 | 0.00 | 0.00 | 0.00 | 99 | 1014.6 |
| 20260505115416 | 8 | 141 | 0.0 | 0.0 | 0.00 | 0.00 | 0.00 | 99 | 1014.6 |
| 20260505114916 | 8 | 141 | 0.0 | 0.0 | 0.00 | 0.00 | 0.00 | 98 | 1014.6 |
| 20260505114416 | 8 | 140 | 0.0 | 0.0 | 0.00 | 0.00 | 0.00 | 98 | 1014.6 |
| 20260505113917 | 8 | 140 | 0.0 | 0.0 | 0.00 | 0.00 | 0.00 | 98 | 1014.6 |
| 20260505113416 | 8 | 140 | 0.0 | 0.0 | 0.00 | 0.00 | 0.00 | 97 | 1014.6 |
| 20260505112916 | 8 | 140 | 0.0 | 0.0 | 0.00 | 0.00 | 0.00 | 96 | 1014.6 |
| 20260505112416 | 8 | 140 | 0.0 | 0.0 | 0.00 | 0.00 | 0.00 | 96 | 1014.5 |
| 20260505111916 | 8 | 360 | 0.0 | 0.0 | 0.00 | 0.00 | 0.00 | 96 | 1014.5 |
| 20260505111416 | 7 | 360 | 0.0 | 0.0 | 0.00 | 0.00 | 0.00 | 96 | 1014.5 |